Year,Month,Day,Hour,Minute,Value (Times are PST for temperature in C)
2017,06,24,00,00,13.80
2017,06,24,00,01,13.80
2017,06,24,00,02,13.80
2017,06,24,00,03,13.80
2017,06,24,00,04,13.80
2017,06,24,00,05,13.80
2017,06,24,00,06,13.70
2017,06,24,00,07,13.70
2017,06,24,00,08,13.70
2017,06,24,00,09,13.70
2017,06,24,00,10,13.70
2017,06,24,00,11,13.60
2017,06,24,00,12,13.60
2017,06,24,00,13,13.60
2017,06,24,00,14,13.50
2017,06,24,00,15,13.50
2017,06,24,00,16,13.40
2017,06,24,00,17,13.40
2017,06,24,00,18,13.40
2017,06,24,00,19,13.30
2017,06,24,00,20,13.30
2017,06,24,00,21,13.30
2017,06,24,00,22,13.30
2017,06,24,00,23,13.30
2017,06,24,00,24,13.30
2017,06,24,00,25,13.20
2017,06,24,00,26,13.20
2017,06,24,00,27,13.20
2017,06,24,00,28,13.20
2017,06,24,00,29,13.20
2017,06,24,00,30,13.20
2017,06,24,00,31,13.20
2017,06,24,00,32,13.20
2017,06,24,00,33,13.20
2017,06,24,00,34,13.20
2017,06,24,00,35,13.20
2017,06,24,00,36,13.20
2017,06,24,00,37,13.20
2017,06,24,00,38,13.20
2017,06,24,00,39,13.20
2017,06,24,00,40,13.20
2017,06,24,00,41,13.20
2017,06,24,00,42,13.20
2017,06,24,00,43,13.20
2017,06,24,00,44,13.20
2017,06,24,00,45,13.20
2017,06,24,00,46,13.20
2017,06,24,00,47,13.20
2017,06,24,00,48,13.20
2017,06,24,00,49,13.10
2017,06,24,00,50,13.10
2017,06,24,00,51,13.10
2017,06,24,00,52,13.00
2017,06,24,00,53,13.00
2017,06,24,00,54,12.90
2017,06,24,00,55,12.90
2017,06,24,00,56,12.90
2017,06,24,00,57,12.90
2017,06,24,00,58,12.90
2017,06,24,00,59,12.90
2017,06,24,01,00,12.90
2017,06,24,01,01,12.90
2017,06,24,01,02,12.90
2017,06,24,01,03,12.80
2017,06,24,01,04,12.80
2017,06,24,01,05,12.80
2017,06,24,01,06,12.80
2017,06,24,01,07,12.80
2017,06,24,01,08,12.80
2017,06,24,01,09,12.80
2017,06,24,01,10,12.70
2017,06,24,01,11,12.70
2017,06,24,01,12,12.70
2017,06,24,01,13,12.70
2017,06,24,01,14,12.60
2017,06,24,01,15,12.60
2017,06,24,01,16,12.60
2017,06,24,01,17,12.60
2017,06,24,01,18,12.60
2017,06,24,01,19,12.60
2017,06,24,01,20,12.50
2017,06,24,01,21,12.50
2017,06,24,01,22,12.40
2017,06,24,01,23,12.40
2017,06,24,01,24,12.40
2017,06,24,01,25,12.40
2017,06,24,01,26,12.40
2017,06,24,01,27,12.40
2017,06,24,01,28,12.40
2017,06,24,01,29,12.30
2017,06,24,01,30,12.30
2017,06,24,01,31,12.30
2017,06,24,01,32,12.30
2017,06,24,01,33,12.30
2017,06,24,01,34,12.30
2017,06,24,01,35,12.20
2017,06,24,01,36,12.20
2017,06,24,01,37,12.20
2017,06,24,01,38,12.20
2017,06,24,01,39,12.20
2017,06,24,01,40,12.20
2017,06,24,01,41,12.20
2017,06,24,01,42,12.20
2017,06,24,01,43,12.20
2017,06,24,01,44,12.10
2017,06,24,01,45,12.10
2017,06,24,01,46,12.10
2017,06,24,01,47,12.10
2017,06,24,01,48,12.10
2017,06,24,01,49,12.00
2017,06,24,01,50,12.00
2017,06,24,01,51,12.00
2017,06,24,01,52,12.00
2017,06,24,01,53,12.00
2017,06,24,01,54,11.90
2017,06,24,01,55,11.90
2017,06,24,01,56,11.90
2017,06,24,01,57,11.90
2017,06,24,01,58,11.90
2017,06,24,01,59,11.90
2017,06,24,02,00,11.80
2017,06,24,02,01,11.80
2017,06,24,02,02,11.80
2017,06,24,02,03,11.80
2017,06,24,02,04,11.80
2017,06,24,02,05,11.80
2017,06,24,02,06,11.80
2017,06,24,02,07,11.80
2017,06,24,02,08,11.80
2017,06,24,02,09,11.70
2017,06,24,02,10,11.70
2017,06,24,02,11,11.70
2017,06,24,02,12,11.70
2017,06,24,02,13,11.70
2017,06,24,02,14,11.70
2017,06,24,02,15,11.80
2017,06,24,02,16,11.80
2017,06,24,02,17,11.80
2017,06,24,02,18,11.80
2017,06,24,02,19,11.80
2017,06,24,02,20,11.80
2017,06,24,02,21,11.80
2017,06,24,02,22,11.80
2017,06,24,02,23,11.80
2017,06,24,02,24,11.80
2017,06,24,02,25,11.80
2017,06,24,02,26,11.80
2017,06,24,02,27,11.80
2017,06,24,02,28,11.70
2017,06,24,02,29,11.70
2017,06,24,02,30,11.70
2017,06,24,02,31,11.70
2017,06,24,02,32,11.70
2017,06,24,02,33,11.60
2017,06,24,02,34,11.60
2017,06,24,02,35,11.60
2017,06,24,02,36,11.60
2017,06,24,02,37,11.50
2017,06,24,02,38,11.50
2017,06,24,02,39,11.40
2017,06,24,02,40,11.40
2017,06,24,02,41,11.40
2017,06,24,02,42,11.30
2017,06,24,02,43,11.30
2017,06,24,02,44,11.30
2017,06,24,02,45,11.30
2017,06,24,02,46,11.30
2017,06,24,02,47,11.30
2017,06,24,02,48,11.20
2017,06,24,02,49,11.20
2017,06,24,02,50,11.20
2017,06,24,02,51,11.20
2017,06,24,02,52,11.20
2017,06,24,02,53,11.20
2017,06,24,02,54,11.20
2017,06,24,02,55,11.20
2017,06,24,02,56,11.20
2017,06,24,02,57,11.20
2017,06,24,02,58,11.20
2017,06,24,02,59,11.20
2017,06,24,03,00,11.20
2017,06,24,03,01,11.20
2017,06,24,03,02,11.20
2017,06,24,03,03,11.20
2017,06,24,03,04,11.20
2017,06,24,03,05,11.20
2017,06,24,03,06,11.20
2017,06,24,03,07,11.20
2017,06,24,03,08,11.20
2017,06,24,03,09,11.20
2017,06,24,03,10,11.20
2017,06,24,03,11,11.20
2017,06,24,03,12,11.20
2017,06,24,03,13,11.20
2017,06,24,03,14,11.20
2017,06,24,03,15,11.20
2017,06,24,03,16,11.20
2017,06,24,03,17,11.20
2017,06,24,03,18,11.10
2017,06,24,03,19,11.10
2017,06,24,03,20,11.10
2017,06,24,03,21,11.10
2017,06,24,03,22,11.10
2017,06,24,03,23,11.10
2017,06,24,03,24,11.00
2017,06,24,03,25,11.00
2017,06,24,03,26,10.90
2017,06,24,03,27,10.90
2017,06,24,03,28,10.90
2017,06,24,03,29,10.80
2017,06,24,03,30,10.80
2017,06,24,03,31,10.80
2017,06,24,03,32,10.80
2017,06,24,03,33,10.80
2017,06,24,03,34,10.80
2017,06,24,03,35,10.80
2017,06,24,03,36,10.80
2017,06,24,03,37,10.80
2017,06,24,03,38,10.80
2017,06,24,03,39,10.80
2017,06,24,03,40,10.80
2017,06,24,03,41,10.80
2017,06,24,03,42,10.80
2017,06,24,03,43,10.80
2017,06,24,03,44,10.80
2017,06,24,03,45,10.80
2017,06,24,03,46,10.80
2017,06,24,03,47,10.70
2017,06,24,03,48,10.60
2017,06,24,03,49,10.50
2017,06,24,03,50,10.50
2017,06,24,03,51,10.50
2017,06,24,03,52,10.50
2017,06,24,03,53,10.50
2017,06,24,03,54,10.50
2017,06,24,03,55,10.50
2017,06,24,03,56,10.50
2017,06,24,03,57,10.50
2017,06,24,03,58,10.50
2017,06,24,03,59,10.50
2017,06,24,04,00,10.50
2017,06,24,04,01,10.50
2017,06,24,04,02,10.50
2017,06,24,04,03,10.40
2017,06,24,04,04,10.40
2017,06,24,04,05,10.40
2017,06,24,04,06,10.40
2017,06,24,04,07,10.40
2017,06,24,04,08,10.40
2017,06,24,04,09,10.40
2017,06,24,04,10,10.40
2017,06,24,04,11,10.40
2017,06,24,04,12,10.40
2017,06,24,04,13,10.40
2017,06,24,04,14,10.40
2017,06,24,04,15,10.50
2017,06,24,04,16,10.50
2017,06,24,04,17,10.50
2017,06,24,04,18,10.40
2017,06,24,04,19,10.40
2017,06,24,04,20,10.40
2017,06,24,04,21,10.40
2017,06,24,04,22,10.40
2017,06,24,04,23,10.40
2017,06,24,04,24,10.40
2017,06,24,04,25,10.30
2017,06,24,04,26,10.30
2017,06,24,04,27,10.30
2017,06,24,04,28,10.30
2017,06,24,04,29,10.30
2017,06,24,04,30,10.20
2017,06,24,04,31,10.20
2017,06,24,04,32,10.20
2017,06,24,04,33,10.20
2017,06,24,04,34,10.20
2017,06,24,04,35,10.10
2017,06,24,04,36,10.10
2017,06,24,04,37,10.10
2017,06,24,04,38,10.10
2017,06,24,04,39,10.10
2017,06,24,04,40,10.10
2017,06,24,04,41,10.10
2017,06,24,04,42,10.10
2017,06,24,04,43,10.00
2017,06,24,04,44,10.00
2017,06,24,04,45,10.00
2017,06,24,04,46,10.10
2017,06,24,04,47,10.10
2017,06,24,04,48,10.10
2017,06,24,04,49,10.10
2017,06,24,04,50,10.10
2017,06,24,04,51,10.10
2017,06,24,04,52,10.10
2017,06,24,04,53,10.10
2017,06,24,04,54,10.20
2017,06,24,04,55,10.20
2017,06,24,04,56,10.20
2017,06,24,04,57,10.20
2017,06,24,04,58,10.30
2017,06,24,04,59,10.30
2017,06,24,05,00,10.30
2017,06,24,05,01,10.30
2017,06,24,05,02,10.30
2017,06,24,05,03,10.30
2017,06,24,05,04,10.30
2017,06,24,05,05,10.20
2017,06,24,05,06,10.20
2017,06,24,05,07,10.20
2017,06,24,05,08,10.20
2017,06,24,05,09,10.20
2017,06,24,05,10,10.20
2017,06,24,05,11,10.20
2017,06,24,05,12,10.10
2017,06,24,05,13,10.10
2017,06,24,05,14,10.10
2017,06,24,05,15,10.10
2017,06,24,05,16,10.10
2017,06,24,05,17,10.10
2017,06,24,05,18,10.10
2017,06,24,05,19,10.10
2017,06,24,05,20,10.00
2017,06,24,05,21,10.00
2017,06,24,05,22,9.90
2017,06,24,05,23,9.90
2017,06,24,05,24,9.80
2017,06,24,05,25,9.80
2017,06,24,05,26,9.80
2017,06,24,05,27,9.80
2017,06,24,05,28,9.70
2017,06,24,05,29,9.70
2017,06,24,05,30,9.70
2017,06,24,05,31,9.70
2017,06,24,05,32,9.70
2017,06,24,05,33,9.80
2017,06,24,05,34,9.80
2017,06,24,05,35,9.80
2017,06,24,05,36,9.80
2017,06,24,05,37,9.80
2017,06,24,05,38,9.80
2017,06,24,05,39,9.80
2017,06,24,05,40,9.90
2017,06,24,05,41,9.90
2017,06,24,05,42,9.90
2017,06,24,05,43,9.90
2017,06,24,05,44,9.90
2017,06,24,05,45,9.90
2017,06,24,05,46,9.90
2017,06,24,05,47,9.90
2017,06,24,05,48,10.00
2017,06,24,05,49,10.00
2017,06,24,05,50,10.00
2017,06,24,05,51,10.00
2017,06,24,05,52,10.00
2017,06,24,05,53,10.00
2017,06,24,05,54,10.00
2017,06,24,05,55,10.00
2017,06,24,05,56,10.10
2017,06,24,05,57,10.10
2017,06,24,05,58,10.10
2017,06,24,05,59,10.20
2017,06,24,06,00,10.20
2017,06,24,06,01,10.20
2017,06,24,06,02,10.30
2017,06,24,06,03,10.30
2017,06,24,06,04,10.40
2017,06,24,06,05,10.40
2017,06,24,06,06,10.50
2017,06,24,06,07,10.50
2017,06,24,06,08,10.60
2017,06,24,06,09,10.60
2017,06,24,06,10,10.60
2017,06,24,06,11,10.70
2017,06,24,06,12,10.70
2017,06,24,06,13,10.70
2017,06,24,06,14,10.80
2017,06,24,06,15,10.80
2017,06,24,06,16,10.90
2017,06,24,06,17,11.00
2017,06,24,06,18,11.00
2017,06,24,06,19,11.00
2017,06,24,06,20,11.10
2017,06,24,06,21,11.10
2017,06,24,06,22,11.10
2017,06,24,06,23,11.10
2017,06,24,06,24,11.10
2017,06,24,06,25,11.10
2017,06,24,06,26,11.10
2017,06,24,06,27,11.10
2017,06,24,06,28,11.10
2017,06,24,06,29,11.20
2017,06,24,06,30,11.20
2017,06,24,06,31,11.30
2017,06,24,06,32,11.40
2017,06,24,06,33,11.40
2017,06,24,06,34,11.50
2017,06,24,06,35,11.60
2017,06,24,06,36,11.70
2017,06,24,06,37,11.80
2017,06,24,06,38,11.90
2017,06,24,06,39,12.00
2017,06,24,06,40,12.10
2017,06,24,06,41,12.20
2017,06,24,06,42,12.30
2017,06,24,06,43,12.40
2017,06,24,06,44,12.50
2017,06,24,06,45,12.60
2017,06,24,06,46,12.70
2017,06,24,06,47,12.90
2017,06,24,06,48,13.00
2017,06,24,06,49,13.10
2017,06,24,06,50,13.20
2017,06,24,06,51,13.30
2017,06,24,06,52,13.40
2017,06,24,06,53,13.60
2017,06,24,06,54,13.70
2017,06,24,06,55,13.80
2017,06,24,06,56,13.80
2017,06,24,06,57,13.90
2017,06,24,06,58,13.90
2017,06,24,06,59,14.00
2017,06,24,07,00,14.10
2017,06,24,07,01,14.10
2017,06,24,07,02,14.10
2017,06,24,07,03,14.20
2017,06,24,07,04,14.20
2017,06,24,07,05,14.30
2017,06,24,07,06,14.40
2017,06,24,07,07,14.40
2017,06,24,07,08,14.50
2017,06,24,07,09,14.60
2017,06,24,07,10,14.70
2017,06,24,07,11,14.70
2017,06,24,07,12,14.80
2017,06,24,07,13,14.90
2017,06,24,07,14,15.10
2017,06,24,07,15,15.20
2017,06,24,07,16,15.30
2017,06,24,07,17,15.40
2017,06,24,07,18,15.50
2017,06,24,07,19,15.50
2017,06,24,07,20,15.60
2017,06,24,07,21,15.70
2017,06,24,07,22,15.80
2017,06,24,07,23,15.90
2017,06,24,07,24,16.10
2017,06,24,07,25,16.20
2017,06,24,07,26,16.30
2017,06,24,07,27,16.50
2017,06,24,07,28,16.60
2017,06,24,07,29,16.70
2017,06,24,07,30,16.90
2017,06,24,07,31,17.00
2017,06,24,07,32,17.20
2017,06,24,07,33,17.30
2017,06,24,07,34,17.40
2017,06,24,07,35,17.60
2017,06,24,07,36,17.80
2017,06,24,07,37,18.00
2017,06,24,07,38,18.20
2017,06,24,07,39,18.40
2017,06,24,07,40,18.60
2017,06,24,07,41,18.70
2017,06,24,07,42,18.90
2017,06,24,07,43,19.00
2017,06,24,07,44,19.20
2017,06,24,07,45,19.30
2017,06,24,07,46,19.50
2017,06,24,07,47,19.70
2017,06,24,07,48,19.90
2017,06,24,07,49,20.10
2017,06,24,07,50,20.20
2017,06,24,07,51,20.30
2017,06,24,07,52,20.40
2017,06,24,07,53,20.50
2017,06,24,07,54,20.60
2017,06,24,07,55,20.70
2017,06,24,07,56,20.80
2017,06,24,07,57,20.80
2017,06,24,07,58,20.90
2017,06,24,07,59,21.00
2017,06,24,08,00,21.10
2017,06,24,08,01,21.20
2017,06,24,08,02,21.20
2017,06,24,08,03,21.30
2017,06,24,08,04,21.30
2017,06,24,08,05,21.40
2017,06,24,08,06,21.40
2017,06,24,08,07,21.50
2017,06,24,08,08,21.60
2017,06,24,08,09,21.60
2017,06,24,08,10,21.70
2017,06,24,08,11,21.70
2017,06,24,08,12,21.80
2017,06,24,08,13,21.80
2017,06,24,08,14,21.80
2017,06,24,08,15,21.80
2017,06,24,08,16,21.80
2017,06,24,08,17,21.80
2017,06,24,08,18,21.80
2017,06,24,08,19,21.80
2017,06,24,08,20,21.80
2017,06,24,08,21,21.80
2017,06,24,08,22,21.80
2017,06,24,08,23,21.80
2017,06,24,08,24,21.90
2017,06,24,08,25,21.90
2017,06,24,08,26,21.90
2017,06,24,08,27,21.90
2017,06,24,08,28,21.90
2017,06,24,08,29,21.90
2017,06,24,08,30,22.00
2017,06,24,08,31,22.00
2017,06,24,08,32,22.00
2017,06,24,08,33,22.10
2017,06,24,08,34,22.10
2017,06,24,08,35,22.20
2017,06,24,08,36,22.20
2017,06,24,08,37,22.20
2017,06,24,08,38,22.20
2017,06,24,08,39,22.20
2017,06,24,08,40,22.20
2017,06,24,08,41,22.30
2017,06,24,08,42,22.30
2017,06,24,08,43,22.30
2017,06,24,08,44,22.40
2017,06,24,08,45,22.40
2017,06,24,08,46,22.40
2017,06,24,08,47,22.40
2017,06,24,08,48,22.40
2017,06,24,08,49,22.40
2017,06,24,08,50,22.40
2017,06,24,08,51,22.40
2017,06,24,08,52,22.40
2017,06,24,08,53,22.40
2017,06,24,08,54,22.40
2017,06,24,08,55,22.40
2017,06,24,08,56,22.50
2017,06,24,08,57,22.50
2017,06,24,08,58,22.60
2017,06,24,08,59,22.60
2017,06,24,09,00,22.60
2017,06,24,09,01,22.70
2017,06,24,09,02,22.70
2017,06,24,09,03,22.70
2017,06,24,09,04,22.70
2017,06,24,09,05,22.70
2017,06,24,09,06,22.70
2017,06,24,09,07,22.80
2017,06,24,09,08,22.80
2017,06,24,09,09,22.80
2017,06,24,09,10,22.80
2017,06,24,09,11,22.80
2017,06,24,09,12,22.70
2017,06,24,09,13,22.70
2017,06,24,09,14,22.80
2017,06,24,09,15,22.80
2017,06,24,09,16,22.80
2017,06,24,09,17,22.80
2017,06,24,09,18,22.80
2017,06,24,09,19,22.80
2017,06,24,09,20,22.80
2017,06,24,09,21,22.90
2017,06,24,09,22,22.90
2017,06,24,09,23,23.00
2017,06,24,09,24,23.00
2017,06,24,09,25,23.10
2017,06,24,09,26,23.20
2017,06,24,09,27,23.10
2017,06,24,09,28,23.10
2017,06,24,09,29,23.10
2017,06,24,09,30,23.10
2017,06,24,09,31,23.10
2017,06,24,09,32,23.00
2017,06,24,09,33,23.00
2017,06,24,09,34,23.00
2017,06,24,09,35,22.90
2017,06,24,09,36,22.90
2017,06,24,09,37,23.00
2017,06,24,09,38,23.10
2017,06,24,09,39,23.10
2017,06,24,09,40,23.10
2017,06,24,09,41,23.20
2017,06,24,09,42,23.20
2017,06,24,09,43,23.20
2017,06,24,09,44,23.20
2017,06,24,09,45,23.20
2017,06,24,09,46,23.20
2017,06,24,09,47,23.30
2017,06,24,09,48,23.30
2017,06,24,09,49,23.30
2017,06,24,09,50,23.30
2017,06,24,09,51,23.30
2017,06,24,09,52,23.30
2017,06,24,09,53,23.30
2017,06,24,09,54,23.30
2017,06,24,09,55,23.40
2017,06,24,09,56,23.40
2017,06,24,09,57,23.50
2017,06,24,09,58,23.40
2017,06,24,09,59,23.50
2017,06,24,10,00,23.40
2017,06,24,10,01,23.40
2017,06,24,10,02,23.50
2017,06,24,10,03,23.50
2017,06,24,10,04,23.60
2017,06,24,10,05,23.60
2017,06,24,10,06,23.60
2017,06,24,10,07,23.60
2017,06,24,10,08,23.70
2017,06,24,10,09,23.80
2017,06,24,10,10,23.80
2017,06,24,10,11,23.90
2017,06,24,10,12,23.90
2017,06,24,10,13,23.90
2017,06,24,10,14,24.00
2017,06,24,10,15,24.00
2017,06,24,10,16,24.10
2017,06,24,10,17,24.10
2017,06,24,10,18,24.10
2017,06,24,10,19,24.10
2017,06,24,10,20,24.10
2017,06,24,10,21,24.10
2017,06,24,10,22,24.20
2017,06,24,10,23,24.20
2017,06,24,10,24,24.20
2017,06,24,10,25,24.10
2017,06,24,10,26,24.10
2017,06,24,10,27,24.00
2017,06,24,10,28,24.00
2017,06,24,10,29,23.90
2017,06,24,10,30,23.90
2017,06,24,10,31,23.80
2017,06,24,10,32,23.80
2017,06,24,10,33,23.80
2017,06,24,10,34,23.80
2017,06,24,10,35,23.80
2017,06,24,10,36,23.80
2017,06,24,10,37,23.90
2017,06,24,10,38,24.00
2017,06,24,10,39,24.00
2017,06,24,10,40,24.00
2017,06,24,10,41,23.90
2017,06,24,10,42,23.80
2017,06,24,10,43,23.70
2017,06,24,10,44,23.70
2017,06,24,10,45,23.60
2017,06,24,10,46,23.60
2017,06,24,10,47,23.60
2017,06,24,10,48,23.60
2017,06,24,10,49,23.60
2017,06,24,10,50,23.60
2017,06,24,10,51,23.60
2017,06,24,10,52,23.60
2017,06,24,10,53,23.70
2017,06,24,10,54,23.80
2017,06,24,10,55,23.90
2017,06,24,10,56,23.90
2017,06,24,10,57,24.00
2017,06,24,10,58,23.90
2017,06,24,10,59,23.90
2017,06,24,11,00,23.90
2017,06,24,11,01,23.90
2017,06,24,11,02,23.90
2017,06,24,11,03,23.90
2017,06,24,11,04,23.90
2017,06,24,11,05,23.90
2017,06,24,11,06,23.90
2017,06,24,11,07,23.90
2017,06,24,11,08,23.90
2017,06,24,11,09,23.90
2017,06,24,11,10,23.90
2017,06,24,11,11,24.00
2017,06,24,11,12,24.00
2017,06,24,11,13,24.10
2017,06,24,11,14,24.10
2017,06,24,11,15,24.10
2017,06,24,11,16,24.20
2017,06,24,11,17,24.20
2017,06,24,11,18,24.20
2017,06,24,11,19,24.20
2017,06,24,11,20,24.30
2017,06,24,11,21,24.30
2017,06,24,11,22,24.30
2017,06,24,11,23,24.30
2017,06,24,11,24,24.20
2017,06,24,11,25,24.20
2017,06,24,11,26,24.20
2017,06,24,11,27,24.10
2017,06,24,11,28,24.10
2017,06,24,11,29,24.10
2017,06,24,11,30,24.10
2017,06,24,11,31,24.20
2017,06,24,11,32,24.20
2017,06,24,11,33,24.20
2017,06,24,11,34,24.20
2017,06,24,11,35,24.20
2017,06,24,11,36,24.30
2017,06,24,11,37,24.30
2017,06,24,11,38,24.40
2017,06,24,11,39,24.40
2017,06,24,11,40,24.40
2017,06,24,11,41,24.50
2017,06,24,11,42,24.50
2017,06,24,11,43,24.50
2017,06,24,11,44,24.40
2017,06,24,11,45,24.50
2017,06,24,11,46,24.50
2017,06,24,11,47,24.60
2017,06,24,11,48,24.60
2017,06,24,11,49,24.60
2017,06,24,11,50,24.70
2017,06,24,11,51,24.70
2017,06,24,11,52,24.70
2017,06,24,11,53,24.70
2017,06,24,11,54,24.70
2017,06,24,11,55,24.70
2017,06,24,11,56,24.70
2017,06,24,11,57,24.80
2017,06,24,11,58,24.80
2017,06,24,11,59,24.90
2017,06,24,12,00,24.90
2017,06,24,12,01,24.90
2017,06,24,12,02,25.00
2017,06,24,12,03,24.90
2017,06,24,12,04,24.90
2017,06,24,12,05,24.80
2017,06,24,12,06,24.80
2017,06,24,12,07,24.80
2017,06,24,12,08,24.80
2017,06,24,12,09,24.80
2017,06,24,12,10,24.80
2017,06,24,12,11,24.90
2017,06,24,12,12,25.00
2017,06,24,12,13,25.10
2017,06,24,12,14,25.20
2017,06,24,12,15,25.30
2017,06,24,12,16,25.30
2017,06,24,12,17,25.30
2017,06,24,12,18,25.40
2017,06,24,12,19,25.40
2017,06,24,12,20,25.40
2017,06,24,12,21,25.40
2017,06,24,12,22,25.40
2017,06,24,12,23,25.30
2017,06,24,12,24,25.40
2017,06,24,12,25,25.40
2017,06,24,12,26,25.40
2017,06,24,12,27,25.40
2017,06,24,12,28,25.40
2017,06,24,12,29,25.40
2017,06,24,12,30,25.50
2017,06,24,12,31,25.60
2017,06,24,12,32,25.60
2017,06,24,12,33,25.70
2017,06,24,12,34,25.70
2017,06,24,12,35,25.70
2017,06,24,12,36,25.70
2017,06,24,12,37,25.70
2017,06,24,12,38,25.70
2017,06,24,12,39,25.70
2017,06,24,12,40,25.70
2017,06,24,12,41,25.70
2017,06,24,12,42,25.80
2017,06,24,12,43,25.80
2017,06,24,12,44,25.90
2017,06,24,12,45,25.90
2017,06,24,12,46,25.90
2017,06,24,12,47,25.90
2017,06,24,12,48,25.90
2017,06,24,12,49,25.90
2017,06,24,12,50,25.90
2017,06,24,12,51,25.90
2017,06,24,12,52,25.90
2017,06,24,12,53,25.90
2017,06,24,12,54,25.90
2017,06,24,12,55,26.00
2017,06,24,12,56,26.00
2017,06,24,12,57,25.90
2017,06,24,12,58,25.80
2017,06,24,12,59,25.60
2017,06,24,13,00,25.50
2017,06,24,13,01,25.50
2017,06,24,13,02,25.50
2017,06,24,13,03,25.60
2017,06,24,13,04,25.60
2017,06,24,13,05,25.70
2017,06,24,13,06,25.80
2017,06,24,13,07,25.80
2017,06,24,13,08,25.80
2017,06,24,13,09,25.80
2017,06,24,13,10,25.80
2017,06,24,13,11,25.80
2017,06,24,13,12,25.80
2017,06,24,13,13,25.70
2017,06,24,13,14,25.70
2017,06,24,13,15,25.70
2017,06,24,13,16,25.60
2017,06,24,13,17,25.60
2017,06,24,13,18,25.50
2017,06,24,13,19,25.40
2017,06,24,13,20,25.30
2017,06,24,13,21,25.30
2017,06,24,13,22,25.40
2017,06,24,13,23,25.40
2017,06,24,13,24,25.40
2017,06,24,13,25,25.40
2017,06,24,13,26,25.50
2017,06,24,13,27,25.60
2017,06,24,13,28,25.60
2017,06,24,13,29,25.60
2017,06,24,13,30,25.60
2017,06,24,13,31,25.70
2017,06,24,13,32,25.80
2017,06,24,13,33,26.00
2017,06,24,13,34,26.00
2017,06,24,13,35,26.10
2017,06,24,13,36,26.20
2017,06,24,13,37,26.20
2017,06,24,13,38,26.20
2017,06,24,13,39,26.10
2017,06,24,13,40,26.10
2017,06,24,13,41,26.20
2017,06,24,13,42,26.30
2017,06,24,13,43,26.40
2017,06,24,13,44,26.40
2017,06,24,13,45,26.50
2017,06,24,13,46,26.50
2017,06,24,13,47,26.50
2017,06,24,13,48,26.50
2017,06,24,13,49,26.40
2017,06,24,13,50,26.40
2017,06,24,13,51,26.40
2017,06,24,13,52,26.50
2017,06,24,13,53,26.50
2017,06,24,13,54,26.50
2017,06,24,13,55,26.50
2017,06,24,13,56,26.50
2017,06,24,13,57,26.50
2017,06,24,13,58,26.50
2017,06,24,13,59,26.60
2017,06,24,14,00,26.60
2017,06,24,14,01,26.60
2017,06,24,14,02,26.60
2017,06,24,14,03,26.70
2017,06,24,14,04,26.60
2017,06,24,14,05,26.60
2017,06,24,14,06,26.50
2017,06,24,14,07,26.50
2017,06,24,14,08,26.50
2017,06,24,14,09,26.50
2017,06,24,14,10,26.50
2017,06,24,14,11,26.50
2017,06,24,14,12,26.60
2017,06,24,14,13,26.70
2017,06,24,14,14,26.80
2017,06,24,14,15,26.80
2017,06,24,14,16,26.90
2017,06,24,14,17,27.00
2017,06,24,14,18,27.10
2017,06,24,14,19,27.10
2017,06,24,14,20,27.20
2017,06,24,14,21,27.30
2017,06,24,14,22,27.30
2017,06,24,14,23,27.40
2017,06,24,14,24,27.40
2017,06,24,14,25,27.50
2017,06,24,14,26,27.60
2017,06,24,14,27,27.50
2017,06,24,14,28,27.50
2017,06,24,14,29,27.50
2017,06,24,14,30,27.50
2017,06,24,14,31,27.60
2017,06,24,14,32,27.50
2017,06,24,14,33,27.40
2017,06,24,14,34,27.40
2017,06,24,14,35,27.50
2017,06,24,14,36,27.50
2017,06,24,14,37,27.60
2017,06,24,14,38,27.70
2017,06,24,14,39,27.70
2017,06,24,14,40,27.70
2017,06,24,14,41,27.70
2017,06,24,14,42,27.80
2017,06,24,14,43,27.90
2017,06,24,14,44,28.00
2017,06,24,14,45,28.10
2017,06,24,14,46,28.20
2017,06,24,14,47,28.20
2017,06,24,14,48,28.20
2017,06,24,14,49,28.20
2017,06,24,14,50,28.30
2017,06,24,14,51,28.20
2017,06,24,14,52,28.20
2017,06,24,14,53,28.20
2017,06,24,14,54,28.20
2017,06,24,14,55,28.20
2017,06,24,14,56,28.20
2017,06,24,14,57,28.20
2017,06,24,14,58,28.20
2017,06,24,14,59,28.30
2017,06,24,15,00,28.30
2017,06,24,15,01,28.30
2017,06,24,15,02,28.30
2017,06,24,15,03,28.20
2017,06,24,15,04,28.20
2017,06,24,15,05,28.10
2017,06,24,15,06,28.10
2017,06,24,15,07,28.10
2017,06,24,15,08,28.20
2017,06,24,15,09,28.20
2017,06,24,15,10,28.20
2017,06,24,15,11,28.20
2017,06,24,15,12,28.20
2017,06,24,15,13,28.20
2017,06,24,15,14,28.20
2017,06,24,15,15,28.20
2017,06,24,15,16,28.30
2017,06,24,15,17,28.30
2017,06,24,15,18,28.40
2017,06,24,15,19,28.40
2017,06,24,15,20,28.40
2017,06,24,15,21,28.40
2017,06,24,15,22,28.40
2017,06,24,15,23,28.30
2017,06,24,15,24,28.40
2017,06,24,15,25,28.30
2017,06,24,15,26,28.30
2017,06,24,15,27,28.30
2017,06,24,15,28,28.30
2017,06,24,15,29,28.30
2017,06,24,15,30,28.30
2017,06,24,15,31,28.30
2017,06,24,15,32,28.40
2017,06,24,15,33,28.50
2017,06,24,15,34,28.50
2017,06,24,15,35,28.50
2017,06,24,15,36,28.60
2017,06,24,15,37,28.60
2017,06,24,15,38,28.60
2017,06,24,15,39,28.60
2017,06,24,15,40,28.60
2017,06,24,15,41,28.60
2017,06,24,15,42,28.60
2017,06,24,15,43,28.50
2017,06,24,15,44,28.50
2017,06,24,15,45,28.50
2017,06,24,15,46,28.50
2017,06,24,15,47,28.60
2017,06,24,15,48,28.70
2017,06,24,15,49,28.70
2017,06,24,15,50,28.70
2017,06,24,15,51,28.70
2017,06,24,15,52,28.70
2017,06,24,15,53,28.70
2017,06,24,15,54,28.70
2017,06,24,15,55,28.70
2017,06,24,15,56,28.60
2017,06,24,15,57,28.60
2017,06,24,15,58,28.60
2017,06,24,15,59,28.60
2017,06,24,16,00,28.60
2017,06,24,16,01,28.60
2017,06,24,16,02,28.60
2017,06,24,16,03,28.60
2017,06,24,16,04,28.60
2017,06,24,16,05,28.50
2017,06,24,16,06,28.50
2017,06,24,16,07,28.50
2017,06,24,16,08,28.50
2017,06,24,16,09,28.60
2017,06,24,16,10,28.70
2017,06,24,16,11,28.80
2017,06,24,16,12,28.80
2017,06,24,16,13,28.80
2017,06,24,16,14,28.80
2017,06,24,16,15,28.80
2017,06,24,16,16,28.80
2017,06,24,16,17,28.80
2017,06,24,16,18,28.90
2017,06,24,16,19,28.90
2017,06,24,16,20,29.00
2017,06,24,16,21,29.00
2017,06,24,16,22,29.00
2017,06,24,16,23,29.00
2017,06,24,16,24,28.90
2017,06,24,16,25,28.90
2017,06,24,16,26,28.90
2017,06,24,16,27,28.90
2017,06,24,16,28,28.90
2017,06,24,16,29,28.90
2017,06,24,16,30,28.90
2017,06,24,16,31,28.90
2017,06,24,16,32,28.90
2017,06,24,16,33,28.90
2017,06,24,16,34,28.90
2017,06,24,16,35,29.00
2017,06,24,16,36,29.00
2017,06,24,16,37,29.10
2017,06,24,16,38,29.10
2017,06,24,16,39,29.20
2017,06,24,16,40,29.20
2017,06,24,16,41,29.20
2017,06,24,16,42,29.30
2017,06,24,16,43,29.30
2017,06,24,16,44,29.30
2017,06,24,16,45,29.20
2017,06,24,16,46,29.20
2017,06,24,16,47,29.20
2017,06,24,16,48,29.30
2017,06,24,16,49,29.30
2017,06,24,16,50,29.20
2017,06,24,16,51,29.20
2017,06,24,16,52,29.20
2017,06,24,16,53,29.20
2017,06,24,16,54,29.20
2017,06,24,16,55,29.20
2017,06,24,16,56,29.20
2017,06,24,16,57,29.20
2017,06,24,16,58,29.20
2017,06,24,16,59,29.20
2017,06,24,17,00,29.20
2017,06,24,17,01,29.20
2017,06,24,17,02,29.20
2017,06,24,17,03,29.20
2017,06,24,17,04,29.30
2017,06,24,17,05,29.30
2017,06,24,17,06,29.30
2017,06,24,17,07,29.30
2017,06,24,17,08,29.30
2017,06,24,17,09,29.30
2017,06,24,17,10,29.30
2017,06,24,17,11,29.30
2017,06,24,17,12,29.30
2017,06,24,17,13,29.30
2017,06,24,17,14,29.30
2017,06,24,17,15,29.30
2017,06,24,17,16,29.30
2017,06,24,17,17,29.20
2017,06,24,17,18,29.20
2017,06,24,17,19,29.20
2017,06,24,17,20,29.20